User: anonymous   Login
Location: Unspecified
(0.0000°N, 0.0000°E)
Time: 10:33:47
(UTC+00:00)
Language:

Milstar 3 - Orbit

View from above orbital plane
View from above orbital plane
View from above satellite
View from above satellite

Ground track
Ground track

The orbit data is extracted from the following two-line orbital elements,

1 25724U 99023A   18222.40963403 0.00000000  00000-0  00000-0 0    00
2 25724  28.2178   3.4301 2134851 163.2128 196.7867  9.37447906    01
Epoch (UTC): 10 August 2018 09:49:52
Eccentricity: 0.2134851
inclination: 28.2178°
perigee height: 1094 km
apogee height: 5151 km
right ascension of ascending node: 3.4301°
argument of perigee: 163.2128°
revolutions per day: 9.37447906
mean anomaly at epoch: 196.7867°
orbit number at epoch: 0

The dashed part of the orbit path shows where the satellite is in the earth's shadow,  

DLR